FW5790 Weather Reports


time (UTC)temp
C
wind
direction
speed
KPH
gust
KPH
rain 1hr
cm
rain 24hr
cm
rain mn
cm
humidity
%
barometer
mb
20260906100058 22 196 1.6 8.0 0.00 0.05 0.00 91 1014.2
20260906094604 22 200 3.2 9.7 0.00 0.05 0.00 91 1014.1
20260906093055 22 197 0.0 3.2 0.00 0.05 0.00 91 1014.0
20260906091606 22 193 0.0 1.6 0.00 0.05 0.00 90 1013.9
20260906084606 22 0 0.0 0.0 0.00 0.05 0.00 90 1013.9
20260906083052 22 0 0.0 1.6 0.00 0.05 0.00 90 1013.8
20260906081553 22 0 0.0 0.0 0.00 0.05 0.00 90 1013.7
20260906074556 22 0 0.0 0.0 0.00 0.05 0.00 90 1013.9
20260906073054 22 0 0.0 0.0 0.00 0.05 0.00 89 1013.8
20260906071551 23 0 0.0 0.0 0.00 0.05 0.00 89 1013.7
20260906070050 23 0 0.0 3.2 0.00 0.05 0.00 89 1013.8
20260906064601 23 198 0.0 3.2 0.00 0.05 0.00 89 1013.8
20260906063059 23 0 0.0 0.0 0.00 0.05 0.00 90 1013.9
20260906061603 23 0 0.0 0.0 0.00 0.05 0.00 89 1014.1
20260906054554 23 0 0.0 1.6 0.00 0.05 0.00 89 1014.1
20260906053110 23 198 0.0 1.6 0.00 0.05 0.00 89 1014.1
20260906051604 23 0 0.0 0.0 0.00 0.05 0.00 88 1014.1
20260906050101 24 0 0.0 0.0 0.00 0.05 0.00 88 1014.0
20260906044602 24 0 0.0 0.0 0.00 0.05 0.00 87 1014.0
20260906043106 25 0 0.0 0.0 0.00 0.05 0.00 85 1013.7
20260906041603 25 0 0.0 0.0 0.00 0.05 0.00 85 1013.5
20260906040117 25 0 0.0 1.6 0.00 0.05 0.00 84 1013.6
20260906034555 26 203 0.0 3.2 0.00 0.05 0.05 84 1013.5
20260906033107 26 191 0.0 0.0 0.00 0.05 0.05 84 1013.4
20260906031559 26 0 0.0 0.0 0.00 0.05 0.05 85 1013.4
20260906030055 25 0 0.0 1.6 0.00 0.05 0.05 86 1013.4
20260906024556 25 0 0.0 0.0 0.00 0.05 0.05 86 1013.1
20260906023054 25 0 0.0 0.0 0.00 0.05 0.05 85 1013.2
20260906021607 26 0 0.0 0.0 0.00 0.05 0.05 84 1013.2
20260906020105 26 0 0.0 0.0 0.00 0.05 0.05 83 1013.0
20260906014602 26 0 0.0 0.0 0.00 0.05 0.05 83 1013.0
20260906013107 26 0 0.0 0.0 0.00 0.05 0.05 85 1012.9
20260906011605 26 0 0.0 0.0 0.00 0.05 0.05 84 1012.6
20260906010058 27 0 0.0 0.0 0.00 0.05 0.05 84 1012.3
20260906004609 27 0 0.0 0.0 0.00 0.05 0.05 85 1012.5
20260906003102 27 0 0.0 0.0 0.00 0.05 0.05 85 1012.3
20260906001553 28 0 0.0 0.0 0.00 0.05 0.05 82 1012.3
20260906000107 28 0 0.0 0.0 0.00 0.05 0.05 79 1012.5
20260905234550 29 0 0.0 0.0 0.00 0.05 0.05 76 1012.7
20260905233056 30 0 0.0 0.0 0.00 0.05 0.05 77 1012.9
20260905231553 30 0 0.0 3.2 0.00 0.05 0.05 74 1012.9
20260905230055 30 0 0.0 0.0 0.00 0.05 0.05 76 1012.5
20260905224555 30 0 0.0 0.0 0.00 0.05 0.05 74 1012.7
20260905223052 30 0 0.0 0.0 0.00 0.05 0.05 71 1012.3
20260905221552 31 0 0.0 0.0 0.00 0.05 0.05 69 1012.5
20260905220100 31 0 0.0 1.6 0.00 0.05 0.05 69 1012.3
20260905214552 31 132 0.0 1.6 0.00 0.05 0.05 68 1012.3
20260905213052 31 0 0.0 0.0 0.00 0.05 0.05 68 1012.5
20260905211553 31 0 0.0 0.0 0.00 0.05 0.05 69 1012.5
20260905210115 31 0 0.0 1.6 0.00 0.05 0.05 65 1012.6
20260905204558 31 0 0.0 3.2 0.00 0.05 0.05 64 1012.9
20260905203101 31 0 0.0 3.2 0.00 0.05 0.05 64 1012.9
20260905201600 32 0 0.0 1.6 0.00 0.05 0.05 65 1013.2
20260905200117 32 128 0.0 1.6 0.00 0.05 0.05 63 1013.4
20260905194607 33 0 0.0 1.6 0.00 0.05 0.05 63 1013.5
20260905193050 33 0 0.0 3.2 0.00 0.05 0.05 59 1013.8
20260905191603 33 0 0.0 1.6 0.00 0.05 0.05 59 1014.1
20260905190057 33 160 0.0 1.6 0.00 0.05 0.05 57 1014.3
20260905184624 33 255 0.0 3.2 0.00 0.05 0.05 58 1014.3
20260905183053 33 0 0.0 1.6 0.00 0.05 0.05 61 1014.4
20260905181602 33 136 0.0 1.6 0.00 0.05 0.05 59 1014.6
20260905180057 33 0 1.6 6.4 0.00 0.05 0.05 59 1014.9
20260905174629 33 186 0.0 3.2 0.00 0.05 0.05 59 1014.9
20260905173052 33 250 0.0 3.2 0.00 0.05 0.05 62 1015.0
20260905171550 32 0 0.0 4.8 0.00 0.05 0.05 57 1015.3
20260905170057 32 96 0.0 1.6 0.00 0.05 0.05 59 1015.6
20260905164554 31 269 0.0 4.8 0.00 0.05 0.05 60 1015.8
20260905163053 31 248 0.0 4.8 0.00 0.05 0.05 60 1016.1
20260905161549 30 247 1.6 4.8 0.00 0.05 0.05 65 1016.0
20260905160055 30 272 0.0 4.8 0.00 0.05 0.05 63 1015.9
20260905154612 30 352 1.6 4.8 0.00 0.05 0.05 67 1015.8
20260905153052 28 250 1.6 6.4 0.00 0.05 0.05 69 1015.8
20260905151613 28 260 1.6 6.4 0.00 0.05 0.05 73 1015.8
20260905150056 27 232 0.0 6.4 0.00 0.05 0.05 75 1016.0
20260905144552 27 264 3.2 8.0 0.00 0.05 0.05 72 1016.1
20260905143052 27 237 0.0 6.4 0.00 0.05 0.05 75 1016.4
20260905141557 26 32 0.0 6.4 0.00 0.05 0.05 76 1016.7
20260905140056 25 259 1.6 11.3 0.00 0.05 0.05 77 1016.6
20260905134552 25 298 1.6 11.3 0.00 0.05 0.05 77 1016.7
20260905133057 25 260 4.8 11.3 0.00 0.05 0.05 79 1016.8
20260905131605 24 264 1.6 9.7 0.00 0.05 0.05 82 1017.2
20260905130056 23 0 3.2 11.3 0.00 0.05 0.05 84 1017.3
20260905124553 23 197 3.2 9.7 0.00 0.05 0.05 87 1017.0
20260905123102 23 198 4.8 17.7 0.00 0.05 0.05 86 1017.0
20260905121600 23 199 4.8 20.9 0.00 0.05 0.05 88 1016.4
20260905120054 23 181 0.0 3.2 0.00 0.05 0.05 91 1015.6
20260905114600 23 0 0.0 1.6 0.00 0.05 0.05 90 1015.7
20260905113057 24 41 0.0 4.8 0.05 0.05 0.05 89 1016.1
20260905111641 24 226 0.0 3.2 0.00 0.00 0.00 87 1015.4
20260905110053 25 0 0.0 6.4 0.00 0.00 0.00 87 1015.7
20260905104554 25 0 0.0 1.6 0.00 0.00 0.00 87 1015.2
20260905103058 25 0 0.0 1.6 0.00 0.00 0.00 88 1015.2
20260905101604 25 0 0.0 6.4 0.00 0.00 0.00 88 1014.6